THY95Y LTFM-KDEN

Flight info

Callsign THY95Y
Flight time N/A
Altitude 36000
Route TUDBU Q26 ETUBA DCT DEGET DCT PATAK DCT ODNEM DCT ELMEK DCT VEXIL DCT KATCE DCT MIMVA DCT OTBED L60 PENIL M144 BAGSO DCT RESNO/M085F380 DCT 56N020W 56N030W 56N040W 55N050W DCT LOMSI/N0493F400 DCT SPOTE DCT YMO DCT 50N088W DCT FAR DCT GILTE DCT NYTRO AALLE4
Aircraft A359/H-SDE2E3GHIJ3J4J5LM1ORWXY/LB1D1

Departure

Time 2026-05-04 04:37
Airport İstanbul Airport (LTFM)

Arrival

Time N/A
Airport Denver International Airport (KDEN)
Time Latitude Longitude Altitude Speed Heading
2026-05-04 04:12 41.26598 28.75007 340 ft 0 kts 287°
2026-05-04 04:29 41.26595 28.75021 335 ft 4 kts 287°
2026-05-04 04:29 41.26587 28.75056 335 ft 4 kts 286°
2026-05-04 04:29 41.26581 28.75082 335 ft 4 kts 271°
2026-05-04 04:30 41.26584 28.75110 335 ft 4 kts 236°
2026-05-04 04:30 41.26599 28.75131 335 ft 4 kts 203°
2026-05-04 04:30 41.26623 28.75142 327 ft 4 kts 197°
2026-05-04 04:30 41.26632 28.75145 324 ft 1 kts 197°
2026-05-04 04:33 41.26630 28.75144 326 ft 2 kts 197°
2026-05-04 04:33 41.26596 28.75130 335 ft 9 kts 197°
2026-05-04 04:34 41.26518 28.75099 336 ft 13 kts 196°
2026-05-04 04:34 41.26427 28.75063 337 ft 15 kts 197°
2026-05-04 04:34 41.26311 28.75017 338 ft 20 kts 194°
2026-05-04 04:34 41.26245 28.75108 340 ft 15 kts 89°
2026-05-04 04:35 41.26246 28.75253 340 ft 17 kts 87°
2026-05-04 04:35 41.26250 28.75423 340 ft 19 kts 90°
2026-05-04 04:35 41.26249 28.75617 340 ft 20 kts 89°
2026-05-04 04:35 41.26262 28.75648 336 ft 7 kts 39°
2026-05-04 04:36 41.26349 28.75665 338 ft 0 kts 358°
2026-05-04 04:36 41.26365 28.75665 339 ft 13 kts
2026-05-04 04:36 41.26643 28.75661 338 ft 67 kts 359°
2026-05-04 04:37 41.29193 28.75665 1046 ft 134 kts
2026-05-04 04:37 41.30104 28.75877 1591 ft 137 kts 20°
2026-05-04 04:38 41.30934 28.76641 1845 ft 154 kts 38°
2026-05-04 04:38 41.31832 28.77540 2071 ft 169 kts 32°
2026-05-04 04:38 41.32882 28.78440 2234 ft 190 kts 30°
2026-05-04 04:38 41.34063 28.79387 2543 ft 206 kts 30°
2026-05-04 04:39 41.35331 28.80381 3007 ft 215 kts 30°
2026-05-04 04:39 41.36627 28.81384 3509 ft 221 kts 30°
2026-05-04 04:39 41.38015 28.82310 4029 ft 225 kts 19°
2026-05-04 04:39 41.39585 28.82562 4562 ft 231 kts
2026-05-04 04:40 41.41208 28.82399 5104 ft 237 kts 358°
2026-05-04 04:40 41.42863 28.82180 5711 ft 240 kts 359°
2026-05-04 04:40 41.44535 28.81962 6348 ft 243 kts 359°
2026-05-04 04:40 41.46232 28.81747 6941 ft 246 kts 359°
2026-05-04 04:41 41.47943 28.81533 7591 ft 248 kts 359°
2026-05-04 04:41 41.49500 28.81340 8184 ft 250 kts 359°
2026-05-04 04:41 41.51243 28.81124 8836 ft 252 kts 359°
2026-05-04 04:41 41.53003 28.80907 9505 ft 255 kts 359°
2026-05-04 04:42 41.54789 28.80686 10159 ft 258 kts 359°
2026-05-04 04:42 41.56628 28.80464 10498 ft 273 kts 359°
2026-05-04 04:42 41.58550 28.80201 10728 ft 290 kts 355°
2026-05-04 04:42 41.60533 28.79342 10901 ft 314 kts 335°
2026-05-04 04:43 41.62233 28.77348 11083 ft 340 kts 312°
2026-05-04 04:43 41.63367 28.74458 11317 ft 363 kts 297°
2026-05-04 04:43 41.64250 28.71239 11720 ft 373 kts 295°
2026-05-04 04:43 41.65140 28.67953 12266 ft 377 kts 296°
2026-05-04 04:44 41.66064 28.64641 12848 ft 380 kts 296°
2026-05-04 04:44 41.66888 28.61294 13379 ft 388 kts 288°
2026-05-04 04:44 41.67193 28.57668 13956 ft 397 kts 277°
2026-05-04 04:44 41.67244 28.53953 14458 ft 401 kts 276°
2026-05-04 04:45 41.67269 28.50199 14932 ft 406 kts 276°
2026-05-04 04:45 41.67470 28.46446 15429 ft 404 kts 285°
2026-05-04 04:45 41.68306 28.42878 15906 ft 401 kts 297°
2026-05-04 04:47 41.75198 28.21884 18783 ft 421 kts 298°
2026-05-04 04:47 41.76375 28.18270 19223 ft 424 kts 298°
2026-05-04 04:47 41.77558 28.14629 19676 ft 428 kts 297°
2026-05-04 04:47 41.78754 28.10969 20133 ft 431 kts 298°
2026-05-04 04:48 41.80195 28.07450 20606 ft 430 kts 308°
2026-05-04 04:49 41.87441 27.94471 22384 ft 442 kts 310°
2026-05-04 04:49 41.89304 27.91156 22843 ft 445 kts 310°
2026-05-04 04:49 41.91177 27.87816 23303 ft 449 kts 310°
2026-05-04 04:49 41.93062 27.84448 23744 ft 452 kts 310°
2026-05-04 04:50 41.94957 27.81057 24101 ft 456 kts 310°
2026-05-04 04:50 41.96933 27.77709 24445 ft 458 kts 315°
2026-05-04 04:50 41.99062 27.74588 24760 ft 461 kts 317°
2026-05-04 04:50 42.01329 27.71479 25074 ft 465 kts 318°
2026-05-04 04:51 42.03629 27.68408 25419 ft 469 kts 319°
2026-05-04 04:51 42.05961 27.65303 25750 ft 473 kts 319°
2026-05-04 04:51 42.08305 27.62159 26084 ft 476 kts 318°
2026-05-04 04:51 42.10648 27.58988 26422 ft 480 kts 318°